SCP
0 0 0 0 0 0 0 0 0 0 0 0 0 0 0 0 0 0 0 0 0 0 0 0 0 0 0 0 0 0 0 0 -0 0 0 0 0 0 0 0 0 0 0
0 0 0 0 0 0 0 0 0 0 0 0 0 0 0 0 0 0 0 0 0 0 0 0 0 0 0 0 0 0 0 0 0 0 0 0 0 0 0 0 0 0 0
0 0 0 0 0 0 0 0 0 0 0 0 0 0 0 0 0 0 0 0 0 0 0 0 0 0 0 0 0 0 0 0 -0 0 0 0 0 0 0 0 0 0 0
0 0 0 0 0 0 0 0 0 0 0 0 0 0 0 0 0 0 0 0 0 0 0 0 0 0 0 0 0 0 0 0 0 0 0 0 0 0 0 0 0 0 0
0 0 0 0 0 0 0 0 0 0 0 0 0 0 0 0 0 0 0 0 0 0 0 0 0 0 0 0 0 0 -0 -0 -0 -0 0 0 0 0 0 0 0 0 0
0 0 0 0 0 0 0 0 0 0 0 0 0 0 0 0 0 0 0 0 0 0 0 0 0 0 0 0 0 -0 0 0 -0 -0 0 0 0 0 0 0 0 0 0
0 0 0 0 0 0 0 0 0 0 0 0 0 0 0 0 0 0 0 0 0 0 0 0 0 0 0 0 -0 -0 0 0 0 -0 0 -0 0 0 0 0 0 0 0
0 0 0 0 0 0 0 0 0 0 0 0 0 0 0 0 0 0 0 0 0 0 0 0 0 0 0 -0 -0 -0 -0 -0 -0 -0 0 -0 0 0 0 0 0 0 0
0 0 0 0 0 0 0 0 0 0 0 0 0 0 0 0 0 0 0 0 0 0 0 0 0 0 -0 -0 -0 -0 -0 -0 -0 -0 0 0 -0 0 0 0 0 0 0
0 0 0 0 0 0 0 0 0 0 0 0 0 0 0 0 0 0 0 0 0 0 0 0 0 0 0 0 0 -0 -0 -0 -0 -0 -0 0 0 0 0 0 0 0 0
0 0 0 0 0 0 0 0 0 0 0 0 0 0 0 0 0 0 0 0 0 0 0 0 0 0 0 0 0 0 -0 -0 -0 -0 -0 -0 0 0 0 0 0 0 0
0 0 0 0 0 0 0 0 0 0 0 0 0 0 0 0 0 0 0 0 0 0 0 0 0 0 0 0 0 0 0 0 -0 -0 -0 0 -0 0 0 0 0 0 0
0 0 0 0 0 0 0 0 0 0 0 0 0 0 0 0 0 0 0 0 0 0 0 0 0 0 0 0 0 0 0 0 -0 -0 -0 -0 -0 0 0 0 0 0 0
0 0 0 0 0 0 0 0 0 0 0 0 0 0 0 0 0 0 0 0 0 0 0 0 0 0 0 0 0 0 0 0 -0 -0 -0 -0 -0 0 0 0 0 0 0
0 0 0 0 0 0 0 0 0 0 0 0 0 0 0 0 0 0 0 0 0 0 0 0 0 0 0 0 0 0 0 0 0 -0 0 0 -0 0 0 0 0 0 0
0 0 0 0 0 0 0 0 0 0 0 0 0 0 0 0 0 0 0 0 0 0 0 0 0 0 0 0 0 0 0 0 0 0 0 0 0 0 0 0 0 0 0
0 0 0 0 0 0 0 0 0 0 0 0 0 0 0 0 0 0 0 0 0 0 0 0 0 0 0 0 0 0 0 0 0 0 0 0 0 0 0 0 0 0 0
0 0 0 0 0 0 0 0 0 0 0 0 0 0 0 0 0 0 0 0 0 0 0 0 0 0 0 0 0 0 0 0 0 0 0 0 0 0 0 0 0 0 0
0 0 0 0 0 0 0 0 0 0 0 0 0 0 0 0 0 0 0 0 0 0 0 0 0 0 0 0 0 0 0 0 0 0 0 0 0 0 0 0 0 0 0
0 0 0 0 0 0 0 0 0 0 0 0 0 0 0 0 0 0 0 0 0 0 0 0 0 0 0 0 0 0 0 0 0 0 0 0 0 0 0 0 0 0 0
0 0 0 0 0 0 0 0 0 0 0 0 0 0 0 0 0 0 0 0 0 0 0 0 0 0 0 0 0 0 0 0 0 0 0 0 0 0 0 0 0 0 0
0 0 0 0 0 0 0 0 0 0 0 0 0 0 0 0 0 0 0 0 0 0 0 0 0 0 0 0 0 0 0 0 0 0 0 0 0 0 0 0 0 0 0
0 0 0 0 0 0 0 0 0 0 0 0 0 0 0 0 0 0 0 0 0 0 0 0 0 0 0 0 0 0 0 0 0 0 0 0 0 0 0 0 0 0 0
0 0 0 0 0 0 0 0 0 0 0 0 0 0 0 0 0 0 0 0 0 0 0 0 0 0 0 0 0 0 0 0 0 0 0 0 0 0 0 0 0 0 0
0 0 0 0 0 0 0 0 0 0 0 0 0 0 0 0 0 0 0 0 0 0 0 0 0 0 0 0 0 0 0 0 0 0 0 0 0 0 0 0 0 0 0
0 0 0 0 0 0 0 0 0 0 0 0 0 0 0 0 0 0 0 0 0 0 0 0 0 0 0 0 0 0 0 0 0 0 0 0 0 0 0 0 0 0 0
Wind_Speed_500mb
27 29 30 31 34 38 41 43 45 46 46 43 43 44 44 44 43 40 42 44 47 45 42 41 37 35 35 31 27 29 33 34 37 33 26 22 23 24 26 26 28 30 28
27 30 32 34 35 40 43 45 46 47 44 43 43 43 44 44 43 44 51 52 49 46 44 38 35 32 32 33 29 28 29 31 35 35 32 28 24 25 26 25 26 28 29
27 30 34 36 37 42 44 46 46 47 44 43 43 43 45 46 43 51 55 58 53 46 40 37 33 30 29 30 28 30 31 32 35 34 34 32 32 27 25 27 28 29 31
29 31 35 37 39 42 44 45 46 46 44 43 42 45 45 45 45 55 60 61 51 42 41 37 36 35 33 32 34 35 32 36 36 36 36 34 35 33 37 39 36 31 32
29 32 35 37 38 41 43 43 45 44 42 41 45 46 47 46 52 63 69 63 45 45 39 39 36 36 37 37 38 37 40 38 37 40 42 38 35 33 33 33 35 29 29
31 33 35 37 39 41 41 44 45 44 43 43 46 49 51 49 71 67 72 56 49 44 44 40 38 36 33 36 36 39 39 42 46 46 46 44 40 38 38 35 30 31 26
30 32 35 38 40 41 41 44 45 45 45 46 48 51 53 53 77 72 74 54 49 49 47 41 39 36 38 39 42 43 40 38 40 44 49 46 40 39 37 37 37 36 25
31 34 37 39 40 41 41 43 45 44 46 47 50 53 55 56 79 77 75 59 51 52 43 40 45 43 40 47 45 41 35 32 33 35 39 40 37 35 39 35 35 31 25
32 35 37 39 39 41 41 43 45 44 46 47 50 52 57 59 77 78 78 62 59 53 44 42 45 48 52 45 41 36 33 27 26 32 35 36 37 40 43 37 37 35 29
34 35 36 37 36 38 40 41 43 43 46 48 51 51 57 61 72 76 79 75 68 60 50 48 48 55 52 41 35 30 30 30 30 24 21 26 33 37 49 45 40 40 31
31 32 34 35 35 36 37 41 44 45 47 50 51 52 56 61 67 70 72 73 74 64 57 56 58 61 50 38 26 22 31 32 23 18 16 19 23 36 45 46 42 40 36
30 31 33 35 36 36 38 41 44 48 49 53 56 57 58 61 70 75 73 72 73 69 72 72 78 70 58 42 29 20 13 9 10 10 14 21 27 35 38 44 49 39 35
33 34 32 36 37 38 40 42 46 49 50 54 56 59 62 64 75 84 85 89 81 81 76 78 78 78 69 55 39 28 24 16 7 4 4 13 27 28 27 36 41 43 37
30 31 30 33 33 35 41 43 47 58 54 53 55 58 62 69 81 89 94 98 96 98 85 78 78 74 79 68 56 45 36 30 19 6 3 10 21 30 35 38 42 45 37
28 31 31 31 32 32 35 54 55 59 65 62 61 58 74 85 88 87 95 103 103 99 85 84 89 89 84 83 73 60 50 41 34 25 6 9 14 28 40 37 38 42 38
28 30 37 30 29 30 29 29 48 57 62 64 66 73 79 85 93 100 107 112 115 103 98 95 100 99 95 88 82 72 59 50 43 38 28 7 15 27 35 39 46 46 42
35 32 30 31 30 30 31 31 33 40 49 60 66 76 87 97 107 114 119 119 121 124 115 110 109 111 105 95 87 78 74 62 49 46 39 26 8 27 36 38 41 42 42
32 34 33 34 30 30 31 33 35 41 48 55 62 76 88 97 105 113 120 127 134 138 129 120 119 120 118 109 95 85 76 72 62 55 49 37 12 18 32 39 43 43 40
29 29 29 32 35 35 32 33 35 37 42 49 69 74 86 92 102 108 116 127 126 127 130 132 131 131 128 119 108 91 82 79 74 68 61 54 27 17 26 34 36 46 43
27 28 30 29 30 31 33 35 38 41 44 50 66 78 81 89 102 108 114 119 124 126 128 131 133 134 134 128 119 106 96 90 89 77 74 69 51 16 22 31 34 40 43
22 24 28 27 29 32 32 36 40 42 45 50 58 69 77 72 79 92 102 110 113 118 122 127 130 133 134 135 133 125 115 98 92 86 78 73 69 43 22 23 30 33 33
19 20 22 23 26 28 31 34 38 43 48 52 56 63 73 76 79 85 92 100 103 106 113 120 126 129 130 132 131 130 123 116 104 93 84 78 72 64 45 28 26 29 29
15 16 17 18 21 24 27 31 35 40 45 50 55 61 68 73 78 83 88 94 100 105 110 115 122 125 128 127 126 125 124 120 111 102 91 84 79 76 66 48 35 28 23
12 13 13 14 16 18 22 25 30 34 39 44 50 56 62 67 73 78 83 87 93 98 104 109 115 117 121 123 123 120 116 115 111 111 109 99 86 81 76 68 54 40 36
10 10 9 9 11 13 16 20 23 27 33 38 44 50 55 60 65 71 76 80 86 93 99 102 108 111 114 115 116 117 113 112 112 111 114 111 112 96 89 84 76 61 47
9 8 7 5 6 8 11 14 18 21 26 32 38 43 48 54 59 64 69 74 80 85 90 96 100 103 106 108 109 110 111 112 113 112 111 113 112 113 110 103 91 87 80
Wind_Direction_500mb
356 355 353 351 349 349 347 345 342 341 340 340 338 338 337 337 337 338 327 325 320 316 311 305 300 293 288 282 276 272 268 261 263 272 266 262 251 244 239 249 241 238 244
354 354 353 349 347 347 345 344 343 342 341 340 340 341 340 340 343 339 332 328 322 317 313 305 296 292 284 282 278 271 269 267 264 268 267 265 255 251 245 236 235 237 238
355 354 351 351 348 347 344 344 343 343 343 344 344 344 343 345 343 340 338 329 324 317 311 303 298 294 286 283 274 271 271 272 268 260 262 267 264 253 245 240 240 240 236
356 354 351 351 349 346 345 345 345 346 346 348 347 347 347 346 342 343 339 331 326 320 313 309 303 293 287 284 280 283 276 269 265 260 259 257 255 248 247 239 240 240 231
358 356 354 351 349 347 348 349 348 350 350 350 351 350 350 348 342 348 340 336 331 325 319 314 305 294 287 281 273 273 271 273 270 267 261 253 242 244 237 235 236 221 228
0 357 355 355 354 352 352 352 352 354 354 354 353 353 353 349 341 349 343 342 336 329 324 319 311 306 301 295 290 282 271 268 266 266 266 259 243 239 238 226 220 225 229
0 358 357 357 356 355 355 355 357 358 356 357 355 354 353 351 345 351 353 349 339 334 329 323 320 316 312 307 302 295 284 273 263 261 260 259 255 228 231 220 220 217 217
1 360 360 360 358 357 358 359 1 1 359 357 356 355 354 354 348 354 0 351 346 339 335 331 323 324 316 313 310 301 293 279 269 264 261 257 249 231 222 218 212 212 217
3 1 1 0 360 1 2 3 4 2 1 1 0 358 357 357 351 2 1 355 349 346 343 337 329 327 324 322 312 305 300 293 279 271 262 243 234 227 217 204 201 202 209
5 2 2 3 3 4 5 6 6 4 4 4 3 2 1 359 356 8 5 2 357 355 351 346 343 339 337 329 318 311 304 296 289 278 254 243 236 226 212 207 201 199 199
6 5 7 8 8 8 8 10 8 8 7 7 7 5 3 0 360 13 12 8 9 2 357 352 354 356 350 342 327 313 296 298 299 286 264 237 222 205 204 206 197 199 195
12 12 12 13 14 14 14 14 11 12 12 10 10 8 6 3 2 13 9 16 21 11 5 4 3 4 4 1 359 337 308 300 300 269 241 217 205 202 202 205 197 198 196
22 22 18 18 19 23 22 21 18 19 18 13 13 8 6 5 8 20 22 23 22 21 9 5 2 9 11 12 16 23 23 20 17 8 226 220 204 202 205 204 201 197 191
23 23 25 22 30 32 33 31 29 30 26 19 15 11 9 11 19 23 26 25 27 29 17 12 10 9 15 17 20 23 25 25 22 24 356 198 208 201 194 195 186 191 194
33 30 36 34 35 35 33 40 43 40 37 30 27 22 22 24 28 32 33 30 29 27 14 15 15 15 14 16 19 21 18 22 34 39 77 148 191 193 188 190 191 193 194
43 41 47 44 39 39 40 35 38 45 43 40 36 37 38 36 35 36 38 35 32 29 22 17 15 15 14 15 14 15 16 23 34 27 25 71 178 191 188 196 194 192 194
56 54 50 51 45 43 40 36 30 34 32 37 39 38 38 36 33 33 35 36 33 31 26 20 18 17 14 13 15 16 17 17 32 29 31 42 170 186 190 190 189 189 195
61 57 56 55 51 44 39 36 29 27 26 26 34 37 39 37 36 33 32 33 32 33 30 23 21 21 20 16 14 18 21 24 37 39 42 57 116 178 185 192 195 194 195
69 66 59 57 55 53 45 39 35 29 26 24 29 35 37 36 36 35 34 34 31 30 30 30 28 27 26 23 22 26 29 27 36 45 47 52 74 160 177 189 195 195 198
72 71 70 61 57 52 47 44 39 36 32 29 29 31 33 30 34 33 33 34 33 33 32 32 31 31 30 28 28 30 39 40 35 44 48 50 54 126 152 179 188 190 196
82 78 74 68 63 60 52 49 46 41 37 36 35 34 37 31 28 30 31 32 32 30 32 33 32 32 31 31 33 35 41 44 43 39 50 51 56 79 113 147 171 183 187
92 87 81 74 68 64 59 52 47 44 41 38 37 37 37 36 34 32 32 34 32 32 32 32 34 33 33 32 32 35 38 43 45 45 48 55 60 71 93 122 149 166 179
104 98 85 79 71 66 61 57 51 48 43 40 38 37 38 37 36 35 34 34 35 33 33 33 34 33 33 34 35 35 37 42 46 48 51 58 65 65 75 96 119 139 142
119 111 96 84 72 67 62 57 52 48 44 41 39 38 37 36 37 36 35 33 34 35 34 33 35 34 34 33 34 37 40 42 46 53 54 60 64 73 76 79 90 108 127
142 135 116 101 82 71 62 57 51 46 42 40 39 38 37 37 36 36 36 35 34 34 34 34 35 34 35 35 34 35 39 44 45 50 56 58 62 67 73 74 76 86 101
171 165 158 132 96 69 58 49 48 44 40 38 36 34 34 35 34 34 33 34 35 35 34 33 35 35 34 35 35 35 36 41 46 49 51 55 59 61 61 70 76 79 81
Wind_Speed_850mb
27 29 30 31 34 38 41 43 45 46 46 43 43 44 44 44 43 40 42 44 47 45 42 41 37 35 35 31 27 29 33 34 37 33 26 22 23 24 26 26 28 30 28
27 30 32 34 35 40 43 45 46 47 44 43 43 43 44 44 43 44 51 52 49 46 44 38 35 32 32 33 29 28 29 31 35 35 32 28 24 25 26 25 26 28 29
27 30 34 36 37 42 44 46 46 47 44 43 43 43 45 46 43 51 55 58 53 46 40 37 33 30 29 30 28 30 31 32 35 34 34 32 32 27 25 27 28 29 31
29 31 35 37 39 42 44 45 46 46 44 43 42 45 45 45 45 55 60 61 51 42 41 37 36 35 33 32 34 35 32 36 36 36 36 34 35 33 37 39 36 31 32
29 32 35 37 38 41 43 43 45 44 42 41 45 46 47 46 52 63 69 63 45 45 39 39 36 36 37 37 38 37 40 38 37 40 42 38 35 33 33 33 35 29 29
31 33 35 37 39 41 41 44 45 44 43 43 46 49 51 49 71 67 72 56 49 44 44 40 38 36 33 36 36 39 39 42 46 46 46 44 40 38 38 35 30 31 26
30 32 35 38 40 41 41 44 45 45 45 46 48 51 53 53 77 72 74 54 49 49 47 41 39 36 38 39 42 43 40 38 40 44 49 46 40 39 37 37 37 36 25
31 34 37 39 40 41 41 43 45 44 46 47 50 53 55 56 79 77 75 59 51 52 43 40 45 43 40 47 45 41 35 32 33 35 39 40 37 35 39 35 35 31 25
32 35 37 39 39 41 41 43 45 44 46 47 50 52 57 59 77 78 78 62 59 53 44 42 45 48 52 45 41 36 33 27 26 32 35 36 37 40 43 37 37 35 29
34 35 36 37 36 38 40 41 43 43 46 48 51 51 57 61 72 76 79 75 68 60 50 48 48 55 52 41 35 30 30 30 30 24 21 26 33 37 49 45 40 40 31
31 32 34 35 35 36 37 41 44 45 47 50 51 52 56 61 67 70 72 73 74 64 57 56 58 61 50 38 26 22 31 32 23 18 16 19 23 36 45 46 42 40 36
30 31 33 35 36 36 38 41 44 48 49 53 56 57 58 61 70 75 73 72 73 69 72 72 78 70 58 42 29 20 13 9 10 10 14 21 27 35 38 44 49 39 35
33 34 32 36 37 38 40 42 46 49 50 54 56 59 62 64 75 84 85 89 81 81 76 78 78 78 69 55 39 28 24 16 7 4 4 13 27 28 27 36 41 43 37
30 31 30 33 33 35 41 43 47 58 54 53 55 58 62 69 81 89 94 98 96 98 85 78 78 74 79 68 56 45 36 30 19 6 3 10 21 30 35 38 42 45 37
28 31 31 31 32 32 35 54 55 59 65 62 61 58 74 85 88 87 95 103 103 99 85 84 89 89 84 83 73 60 50 41 34 25 6 9 14 28 40 37 38 42 38
28 30 37 30 29 30 29 29 48 57 62 64 66 73 79 85 93 100 107 112 115 103 98 95 100 99 95 88 82 72 59 50 43 38 28 7 15 27 35 39 46 46 42
35 32 30 31 30 30 31 31 33 40 49 60 66 76 87 97 107 114 119 119 121 124 115 110 109 111 105 95 87 78 74 62 49 46 39 26 8 27 36 38 41 42 42
32 34 33 34 30 30 31 33 35 41 48 55 62 76 88 97 105 113 120 127 134 138 129 120 119 120 118 109 95 85 76 72 62 55 49 37 12 18 32 39 43 43 40
29 29 29 32 35 35 32 33 35 37 42 49 69 74 86 92 102 108 116 127 126 127 130 132 131 131 128 119 108 91 82 79 74 68 61 54 27 17 26 34 36 46 43
27 28 30 29 30 31 33 35 38 41 44 50 66 78 81 89 102 108 114 119 124 126 128 131 133 134 134 128 119 106 96 90 89 77 74 69 51 16 22 31 34 40 43
22 24 28 27 29 32 32 36 40 42 45 50 58 69 77 72 79 92 102 110 113 118 122 127 130 133 134 135 133 125 115 98 92 86 78 73 69 43 22 23 30 33 33
19 20 22 23 26 28 31 34 38 43 48 52 56 63 73 76 79 85 92 100 103 106 113 120 126 129 130 132 131 130 123 116 104 93 84 78 72 64 45 28 26 29 29
15 16 17 18 21 24 27 31 35 40 45 50 55 61 68 73 78 83 88 94 100 105 110 115 122 125 128 127 126 125 124 120 111 102 91 84 79 76 66 48 35 28 23
12 13 13 14 16 18 22 25 30 34 39 44 50 56 62 67 73 78 83 87 93 98 104 109 115 117 121 123 123 120 116 115 111 111 109 99 86 81 76 68 54 40 36
10 10 9 9 11 13 16 20 23 27 33 38 44 50 55 60 65 71 76 80 86 93 99 102 108 111 114 115 116 117 113 112 112 111 114 111 112 96 89 84 76 61 47
9 8 7 5 6 8 11 14 18 21 26 32 38 43 48 54 59 64 69 74 80 85 90 96 100 103 106 108 109 110 111 112 113 112 111 113 112 113 110 103 91 87 80
Wind_Direction_850mb
356 355 353 351 349 349 347 345 342 341 340 340 338 338 337 337 337 338 327 325 320 316 311 305 300 293 288 282 276 272 268 261 263 272 266 262 251 244 239 249 241 238 244
354 354 353 349 347 347 345 344 343 342 341 340 340 341 340 340 343 339 332 328 322 317 313 305 296 292 284 282 278 271 269 267 264 268 267 265 255 251 245 236 235 237 238
355 354 351 351 348 347 344 344 343 343 343 344 344 344 343 345 343 340 338 329 324 317 311 303 298 294 286 283 274 271 271 272 268 260 262 267 264 253 245 240 240 240 236
356 354 351 351 349 346 345 345 345 346 346 348 347 347 347 346 342 343 339 331 326 320 313 309 303 293 287 284 280 283 276 269 265 260 259 257 255 248 247 239 240 240 231
358 356 354 351 349 347 348 349 348 350 350 350 351 350 350 348 342 348 340 336 331 325 319 314 305 294 287 281 273 273 271 273 270 267 261 253 242 244 237 235 236 221 228
0 357 355 355 354 352 352 352 352 354 354 354 353 353 353 349 341 349 343 342 336 329 324 319 311 306 301 295 290 282 271 268 266 266 266 259 243 239 238 226 220 225 229
0 358 357 357 356 355 355 355 357 358 356 357 355 354 353 351 345 351 353 349 339 334 329 323 320 316 312 307 302 295 284 273 263 261 260 259 255 228 231 220 220 217 217
1 360 360 360 358 357 358 359 1 1 359 357 356 355 354 354 348 354 0 351 346 339 335 331 323 324 316 313 310 301 293 279 269 264 261 257 249 231 222 218 212 212 217
3 1 1 0 360 1 2 3 4 2 1 1 0 358 357 357 351 2 1 355 349 346 343 337 329 327 324 322 312 305 300 293 279 271 262 243 234 227 217 204 201 202 209
5 2 2 3 3 4 5 6 6 4 4 4 3 2 1 359 356 8 5 2 357 355 351 346 343 339 337 329 318 311 304 296 289 278 254 243 236 226 212 207 201 199 199
6 5 7 8 8 8 8 10 8 8 7 7 7 5 3 0 360 13 12 8 9 2 357 352 354 356 350 342 327 313 296 298 299 286 264 237 222 205 204 206 197 199 195
12 12 12 13 14 14 14 14 11 12 12 10 10 8 6 3 2 13 9 16 21 11 5 4 3 4 4 1 359 337 308 300 300 269 241 217 205 202 202 205 197 198 196
22 22 18 18 19 23 22 21 18 19 18 13 13 8 6 5 8 20 22 23 22 21 9 5 2 9 11 12 16 23 23 20 17 8 226 220 204 202 205 204 201 197 191
23 23 25 22 30 32 33 31 29 30 26 19 15 11 9 11 19 23 26 25 27 29 17 12 10 9 15 17 20 23 25 25 22 24 356 198 208 201 194 195 186 191 194
33 30 36 34 35 35 33 40 43 40 37 30 27 22 22 24 28 32 33 30 29 27 14 15 15 15 14 16 19 21 18 22 34 39 77 148 191 193 188 190 191 193 194
43 41 47 44 39 39 40 35 38 45 43 40 36 37 38 36 35 36 38 35 32 29 22 17 15 15 14 15 14 15 16 23 34 27 25 71 178 191 188 196 194 192 194
56 54 50 51 45 43 40 36 30 34 32 37 39 38 38 36 33 33 35 36 33 31 26 20 18 17 14 13 15 16 17 17 32 29 31 42 170 186 190 190 189 189 195
61 57 56 55 51 44 39 36 29 27 26 26 34 37 39 37 36 33 32 33 32 33 30 23 21 21 20 16 14 18 21 24 37 39 42 57 116 178 185 192 195 194 195
69 66 59 57 55 53 45 39 35 29 26 24 29 35 37 36 36 35 34 34 31 30 30 30 28 27 26 23 22 26 29 27 36 45 47 52 74 160 177 189 195 195 198
72 71 70 61 57 52 47 44 39 36 32 29 29 31 33 30 34 33 33 34 33 33 32 32 31 31 30 28 28 30 39 40 35 44 48 50 54 126 152 179 188 190 196
82 78 74 68 63 60 52 49 46 41 37 36 35 34 37 31 28 30 31 32 32 30 32 33 32 32 31 31 33 35 41 44 43 39 50 51 56 79 113 147 171 183 187
92 87 81 74 68 64 59 52 47 44 41 38 37 37 37 36 34 32 32 34 32 32 32 32 34 33 33 32 32 35 38 43 45 45 48 55 60 71 93 122 149 166 179
104 98 85 79 71 66 61 57 51 48 43 40 38 37 38 37 36 35 34 34 35 33 33 33 34 33 33 34 35 35 37 42 46 48 51 58 65 65 75 96 119 139 142
119 111 96 84 72 67 62 57 52 48 44 41 39 38 37 36 37 36 35 33 34 35 34 33 35 34 34 33 34 37 40 42 46 53 54 60 64 73 76 79 90 108 127
142 135 116 101 82 71 62 57 51 46 42 40 39 38 37 37 36 36 36 35 34 34 34 34 35 34 35 35 34 35 39 44 45 50 56 58 62 67 73 74 76 86 101
171 165 158 132 96 69 58 49 48 44 40 38 36 34 34 35 34 34 33 34 35 35 34 33 35 35 34 35 35 35 36 41 46 49 51 55 59 61 61 70 76 79 81